Weather History for Sulphur, LA

Change the Weather History Date:

Tuesday, October 16, 2012

  Actual Average (KLCH) Record (KLCH)
Temperature  
Mean Temperature 68 °F 70 °F  
Max Temperature 80 °F 81 °F 93 °F (1947)
Min Temperature 55 °F 59 °F 43 °F (1943)
Degree Days  
Heating Degree Days 0 1  
Month to date heating degree days 7  
Since 1 July heating degree days 8  
Cooling Degree Days 2 6  
Month to date cooling degree days 124  
Year to date cooling degree days 2664  
Growing Degree Days 18 (Base 50)    
Moisture  
Dew Point 62 °F    
Average Humidity 80    
Maximum Humidity 100    
Minimum Humidity 58    
Precipitation  
Precipitation 0.14 in 0.17 in 2.71 in (2006)
Month to date precipitation 2.27  
Year to date precipitation 45.75  
Snow  
Snow 0.00 in 0.00 in 0.00 in ()
Month to date snowfall 0.0  
Since 1 July snowfall 0.0  
Since 1 September snowfall 0.0  
Snow Depth -    
Sea Level Pressure  
Sea Level Pressure 29.92 in    
Wind  
Wind Speed 3 mph (SE)    
Max Wind Speed 16 mph    
Max Gust Speed 23 mph    
Visibility 10 miles    
Events Rain    
T = Trace of Precipitation, MM = Missing Value Source: NWS Daily Summary

Daily Weather History Graph

Daily Weather History Graph

Search for Another Location

Airport:

Trip Planner

Search our weather history database for the weather conditions in past years. The results will help you decide how hot, cold, wet, or windy it might be!

Date:

Astronomy

Oct. 16, 2012 Rise Set
Actual Time 7:16 AM CDT 6:40 PM CDT
Civil Twilight 6:52 AM CDT 7:05 PM CDT
Nautical Twilight 6:24 AM CDT 7:32 PM CDT
Astronomical Twilight 5:56 AM CDT 8:00 PM CDT
Moon 8:31 AM CDT (10/16) 7:36 PM CDT (10/16)
Length of Visible Light 12h 12m
Length of Day
11h 24m
New Moon, 2% of the Moon is Illuminated
Oct 16
New Moon
Oct 21
First Quarter
Oct 29
Full
Nov 6
Last Quarter
Nov 13
New

Hourly Weather History & Observations

Time (CDT) Temp. Heat Index Dew Point Humidity Pressure Visibility Wind Dir Wind Speed Gust Speed Precip Events Conditions
12:15 AM 60.8 °F - 59.0 °F 94% 30.01 in 10.0 mi Calm Calm - N/A   Clear
12:35 AM 60.8 °F - 59.0 °F 94% 30.00 in 10.0 mi Calm Calm - N/A   Clear
12:55 AM 59.0 °F - 57.2 °F 94% 30.00 in 10.0 mi Calm Calm - N/A   Clear
1:15 AM 59.0 °F - 59.0 °F 100% 29.99 in 10.0 mi NNE 3.5 mph - N/A   Clear
1:35 AM 64.4 °F - 57.2 °F 77% 29.98 in 10.0 mi NNE 3.5 mph - N/A   Clear
1:55 AM 66.2 °F - 55.4 °F 68% 29.98 in 10.0 mi NNE 3.5 mph - N/A   Clear
2:15 AM 64.4 °F - 55.4 °F 73% 29.98 in 10.0 mi Calm Calm - N/A   Clear
2:35 AM 64.4 °F - 55.4 °F 73% 29.98 in 10.0 mi NE 3.5 mph - N/A   Clear
2:55 AM 64.4 °F - 55.4 °F 73% 29.97 in 10.0 mi Calm Calm - N/A   Clear
3:15 AM 62.6 °F - 55.4 °F 77% 29.96 in 10.0 mi ENE 4.6 mph - N/A   Clear
3:35 AM 62.6 °F - 53.6 °F 72% 29.95 in 10.0 mi ENE 3.5 mph - N/A   Clear
3:55 AM 62.6 °F - 53.6 °F 72% 29.95 in 10.0 mi ENE 3.5 mph - N/A   Clear
4:15 AM 62.6 °F - 53.6 °F 72% 29.95 in 10.0 mi ENE 3.5 mph - N/A   Clear
4:35 AM 60.8 °F - 53.6 °F 77% 29.95 in 10.0 mi NE 3.5 mph - N/A   Clear
4:55 AM 59.0 °F - 53.6 °F 82% 29.95 in 10.0 mi Calm Calm - N/A   Clear
5:15 AM 60.8 °F - 53.6 °F 77% 29.95 in 10.0 mi Calm Calm - N/A   Clear
5:35 AM 59.0 °F - 53.6 °F 82% 29.95 in 10.0 mi Calm Calm - N/A   Clear
5:55 AM 57.2 °F - 53.6 °F 88% 29.95 in 10.0 mi Calm Calm - N/A   Clear
6:15 AM 59.0 °F - 55.4 °F 88% 29.95 in 10.0 mi Calm Calm - N/A   Clear
6:35 AM 59.0 °F - 53.6 °F 82% 29.95 in 10.0 mi Calm Calm - N/A   Clear
7:15 AM 55.4 °F - 53.6 °F 94% 29.96 in 10.0 mi Calm Calm - N/A   Clear
7:35 AM 55.4 °F - 53.6 °F 94% 29.96 in 10.0 mi Calm Calm - N/A   Clear
7:55 AM 57.2 °F - 55.4 °F 94% 29.96 in 10.0 mi Calm Calm - N/A   Clear
8:15 AM 62.6 °F - 57.2 °F 82% 29.96 in 10.0 mi NE 3.5 mph - N/A   Clear
8:35 AM 64.4 °F - 57.2 °F 77% 29.96 in 10.0 mi Calm Calm - N/A   Clear
8:55 AM 66.2 °F - 57.2 °F 73% 29.96 in 10.0 mi ENE 3.5 mph - N/A   Clear
9:15 AM 66.2 °F - 59.0 °F 78% 29.97 in 10.0 mi East 3.5 mph - N/A   Clear
9:35 AM 68.0 °F - 59.0 °F 73% 29.97 in 10.0 mi East 5.8 mph - N/A   Clear
9:55 AM 69.8 °F - 60.8 °F 73% 29.97 in 10.0 mi East 4.6 mph - N/A   Clear
10:15 AM 69.8 °F - 60.8 °F 73% 29.97 in 10.0 mi East 5.8 mph - N/A   Clear
10:35 AM 71.6 °F - 62.6 °F 73% 29.97 in 10.0 mi East 6.9 mph - N/A   Clear
10:55 AM 71.6 °F - 62.6 °F 73% 29.97 in 10.0 mi East 4.6 mph - N/A   Clear
11:15 AM 73.4 °F - 62.6 °F 69% 29.96 in 10.0 mi ESE 5.8 mph - N/A   Clear
11:35 AM 75.2 °F - 64.4 °F 69% 29.95 in 10.0 mi ESE 5.8 mph - N/A   Clear
11:55 AM 77.0 °F - 64.4 °F 65% 29.95 in 10.0 mi ESE 5.8 mph - N/A   Clear
12:15 PM 77.0 °F - 64.4 °F 65% 29.94 in 10.0 mi ESE 6.9 mph - N/A   Clear
12:35 PM 78.8 °F - 64.4 °F 61% 29.93 in 10.0 mi ESE 5.8 mph - N/A   Clear
12:55 PM 80.6 °F 82.3 °F 64.4 °F 58% 29.93 in 10.0 mi East 3.5 mph - N/A   Clear
1:15 PM 80.6 °F 82.3 °F 64.4 °F 58% 29.91 in 10.0 mi SSE 8.1 mph - N/A   Clear
1:35 PM 80.6 °F 82.3 °F 64.4 °F 58% 29.91 in 10.0 mi SE 10.4 mph - N/A   Scattered Clouds
1:55 PM 80.6 °F 82.3 °F 64.4 °F 58% 29.89 in 10.0 mi SSE 8.1 mph - N/A   Scattered Clouds
2:15 PM 78.8 °F - 64.4 °F 61% 29.88 in 10.0 mi SSE 5.8 mph - N/A   Mostly Cloudy
2:35 PM 78.8 °F - 64.4 °F 61% 29.87 in 10.0 mi South 5.8 mph - N/A   Mostly Cloudy
3:15 PM 78.8 °F - 68.0 °F 69% 29.86 in 10.0 mi SSE 6.9 mph - N/A   Scattered Clouds
3:35 PM 77.0 °F - 68.0 °F 74% 29.86 in 10.0 mi South 5.8 mph - N/A   Scattered Clouds
3:55 PM 77.0 °F - 68.0 °F 74% 29.85 in 10.0 mi South 4.6 mph - N/A   Clear
4:15 PM 77.0 °F - 68.0 °F 74% 29.85 in 10.0 mi South 5.8 mph - N/A   Clear
4:35 PM 77.0 °F - 69.8 °F 78% 29.84 in 10.0 mi Calm Calm - N/A   Clear
4:55 PM 77.0 °F - 69.8 °F 78% 29.85 in 10.0 mi Calm Calm - N/A   Clear
5:15 PM 77.0 °F - 69.8 °F 78% 29.84 in 10.0 mi Calm Calm - N/A   Scattered Clouds
5:35 PM 77.0 °F - 69.8 °F 78% 29.84 in 10.0 mi South 3.5 mph - N/A   Scattered Clouds
5:55 PM 75.2 °F - 69.8 °F 83% 29.84 in 10.0 mi SSW 4.6 mph - N/A   Scattered Clouds
6:15 PM 75.2 °F - 69.8 °F 83% 29.84 in 10.0 mi SW 3.5 mph - N/A   Scattered Clouds
6:35 PM 73.4 °F - 69.8 °F 88% 29.85 in 10.0 mi Calm Calm - N/A   Scattered Clouds
6:55 PM 71.6 °F - 69.8 °F 94% 29.85 in 10.0 mi Calm Calm - N/A   Clear
7:15 PM 71.6 °F - 69.8 °F 94% 29.84 in 10.0 mi Calm Calm - N/A   Scattered Clouds
7:35 PM 71.6 °F - 69.8 °F 94% 29.85 in 10.0 mi Calm Calm - N/A   Scattered Clouds
7:55 PM 71.6 °F - 69.8 °F 94% 29.85 in 10.0 mi Calm Calm - N/A Rain Rain
8:15 PM 69.8 °F - 68.0 °F 94% 29.86 in 7.0 mi West 10.4 mph - N/A Rain Light Rain
8:35 PM 69.8 °F - 68.0 °F 94% 29.87 in 7.0 mi West 9.2 mph - 0.01 in Rain Light Rain
8:55 PM 66.2 °F - 64.4 °F 94% 29.87 in 7.0 mi West 6.9 mph - 0.03 in Rain Light Rain
9:15 PM 66.2 °F - 64.4 °F 94% 29.86 in 7.0 mi WSW 8.1 mph - 0.02 in Rain Light Rain
9:35 PM 64.4 °F - 62.6 °F 94% 29.86 in 10.0 mi SW 8.1 mph - 0.03 in Rain Light Rain
9:55 PM 64.4 °F - 62.6 °F 94% 29.86 in 10.0 mi SSW 10.4 mph - 0.05 in Rain Rain
10:15 PM 64.4 °F - 62.6 °F 94% 29.85 in 7.0 mi SSW 10.4 mph - 0.02 in Rain Rain
10:35 PM 64.4 °F - 62.6 °F 94% 29.82 in 10.0 mi South 16.1 mph 20.7 mph 0.05 in Rain Light Rain
10:55 PM 64.4 °F - 62.6 °F 94% 29.86 in 10.0 mi NNW 15.0 mph 23.0 mph 0.05 in Rain Light Rain
11:15 PM 64.4 °F - 62.6 °F 94% 29.87 in 10.0 mi NW 5.8 mph - N/A   Mostly Cloudy
11:35 PM 64.4 °F - 60.8 °F 88% 29.87 in 10.0 mi WSW 9.2 mph - 0.01 in   Mostly Cloudy
11:55 PM 62.6 °F - 60.8 °F 94% 29.86 in 10.0 mi West 3.5 mph - 0.01 in   Scattered Clouds